[[{"header":{"parameterUnit":"m.s-1","parameterCategory":1,"la1":30.2991,"la2":30.254,"lo1":-89.0895,"lo2":-89.0444,"dy":0.0017,"dx":0.0017,"nx":28,"ny":28,"refTime":"2024-03-07T09:00:00:Z","depth":0,"parameterNumber":2,"parameterNumberName":"U-component_of_WINDS"},"data":[0,0,0,0,0,0,0,0,0,0,0,0,0,0,0,0,0,0,0,0,0,0,0,0,0,0,0,0,0,0,0,0,0,0,0,0,0,0,0,0,0,0,0,0,0,0,0,0,0,0,0,0,0,0,0,0,0,0,0.3805,0.3805,0,0.3835,0.3835,0.3836,0.383,0.383,0.3829,0.3829,0.3858,0.386,0.3861,0,0,0,0,0,0,0,0,0,0,0,0,0,0.3744,0.3745,0.3805,0.3805,0.3806,0.3835,0.3835,0.3836,0.383,0.383,0.3829,0.3829,0.3858,0.3859,0.3861,0,0,0,0,0,0,0,0,0,0,0,0,0,0.3772,0.3745,0.3805,0.3807,0.3807,0.3835,0.3835,0.3836,0.3831,0.383,0.3829,0.3828,0.3857,0.3859,0.3861,0.3889,0,0,0.3867,0.3868,0,0,0,0,0,0,0,0,0.377,0.3774,0.3806,0.3807,0.3807,0.3828,0.3825,0.3854,0.3831,0.3822,0.3829,0.3828,0.3849,0.3851,0.3859,0.389,0.3891,0.3867,0.3868,0.3869,0.387,0,0,0,0,0,0,0,0.3768,0.3772,0.3817,0.3807,0.3807,0.3806,0.3809,0.383,0.3839,0.3822,0.3822,0.3826,0.3849,0.3857,0.3859,0.3892,0.3867,0.3869,0.387,0.3871,0.3949,0.395,0,0,0,0,0,0,0.3766,0.3771,0.3816,0.3818,0.3786,0.3808,0.3811,0.3822,0.3839,0.3841,0.3826,0.3825,0.3854,0.3857,0.386,0.3894,0.3869,0.3871,0.3872,0.3948,0.3949,0.395,0,0,0,0,0,0,0.3764,0.377,0.3815,0.3794,0.38,0.381,0.3822,0.3823,0.3831,0.3842,0.3844,0.3833,0.3854,0.3858,0.3882,0.3895,0.3872,0.3874,0.3947,0.3949,0.395,0.3962,0,0,0,0,0,0,0.3763,0.3769,0.3779,0.3795,0.3801,0.3836,0.3823,0.3824,0.3835,0.3833,0.3848,0.385,0.3853,0.3879,0.3884,0.3898,0.3875,0.3946,0.3948,0.3949,0.3961,0.3964,0.3967,0,0,0,0,0,0.376,0.3781,0.378,0.3785,0.3814,0.3836,0.384,0.3844,0.3836,0.3846,0.3854,0.385,0.3894,0.3882,0.3887,0.3901,0.3945,0.3947,0.3949,0.3959,0.3963,0.3967,0,0,0,0,0,0,0.3766,0.3783,0.3782,0.3808,0.3821,0.3835,0.3849,0.3847,0.3862,0.3861,0.3864,0.3868,0.3893,0.39,0.3886,0.393,0.3918,0.3921,0.3924,0.3928,0.3931,0.3928,0.3877,0,0,0,0,0,0.3771,0.3788,0.3801,0.3823,0.383,0.3838,0.3848,0.385,0.3863,0.3869,0.3878,0.3891,0.3908,0.3918,0.3934,0.3962,0.3966,0.3975,0.3978,0.3981,0.3983,0.4,0.4004,0.3957,0.3957,0.3957,0,0,0.378,0.3791,0.3801,0.3825,0.3835,0.3853,0.3843,0.3861,0.3875,0.3871,0.3895,0.3903,0.3917,0.3944,0.3956,0.3951,0.3997,0.3983,0.3985,0.3986,0.4002,0.4007,0.4011,0.3959,0.3958,0.3958,0,0,0.3805,0.3815,0.3835,0.3846,0.3862,0.3868,0.3873,0.3889,0.3894,0.3918,0.3916,0.3932,0.3961,0.3972,0.3981,0.4014,0.4011,0.4019,0.4035,0.4051,0.4054,0.4058,0.407,0.4074,0.4022,0.4022,0.4022,0,0.3814,0.384,0.3845,0.3865,0.3876,0.3875,0.3895,0.3906,0.3926,0.3934,0.3928,0.3965,0.3975,0.4005,0.4013,0.4021,0.4027,0.4017,0.4054,0.4057,0.406,0.4072,0.4076,0.4023,0.4023,0.4023,0.4023,0,0.3851,0.3869,0.3884,0.3904,0.3917,0.3937,0.3945,0.3958,0.3959,0.3966,0.3992,0.4004,0.4023,0.4031,0.4032,0.4062,0.4058,0.4053,0.4041,0.4065,0.4076,0.4081,0.4024,0.4024,0.4024,0.4023,0,0,0.3878,0.3903,0.3908,0.3919,0.3938,0.3952,0.3973,0.3993,0.4003,0.4018,0.4036,0.4062,0.4058,0.4068,0.4071,0.4086,0.4112,0.4079,0.4079,0.4084,0.4146,0.4149,0.4154,0.4111,0.4112,0.4112,0.4145,0,0.3905,0.3941,0.3948,0.398,0.3998,0.3999,0.4017,0.4031,0.4039,0.4055,0.4064,0.4082,0.4075,0.4082,0.4096,0.4105,0.4124,0.4103,0.4127,0.4128,0.4122,0.416,0.4163,0.4192,0.4149,0.415,0.415,0,0.394,0.3957,0.3991,0.401,0.4018,0.4034,0.4054,0.4069,0.4086,0.4091,0.4104,0.4106,0.4128,0.4117,0.4148,0.4134,0.4144,0.4151,0.4152,0.4153,0.414,0.4162,0.4202,0.4206,0.4157,0.4156,0.4156,0,0.3957,0.3988,0.4013,0.4022,0.4044,0.4056,0.4066,0.4081,0.4094,0.4111,0.4119,0.4139,0.4149,0.4165,0.4172,0.4163,0.4203,0.4192,0.4208,0.4207,0.4214,0.4214,0.4256,0.4223,0.4223,0.4223,0.4222,0,0.3986,0.4006,0.4021,0.4036,0.406,0.4068,0.4092,0.4101,0.4116,0.4133,0.4136,0.4152,0.4162,0.418,0.4186,0.4211,0.4216,0.422,0.4222,0.422,0.4219,0.4225,0.4223,0.4224,0.4223,0.4223,0.4223,0,0.4007,0.4018,0.4045,0.4065,0.407,0.4087,0.4104,0.4119,0.4128,0.415,0.4156,0.417,0.4191,0.4201,0.4227,0.4232,0.426,0.426,0.4255,0.4255,0.427,0.4268,0.4318,0.4325,0.4287,0.4287,0.4288,0,0.4024,0.404,0.4063,0.4075,0.4085,0.4105,0.4118,0.4127,0.4141,0.4162,0.4175,0.4197,0.4215,0.4249,0.4262,0.4282,0.4282,0.4299,0.4285,0.4284,0.4283,0.4281,0.4283,0.43,0.4301,0.4301,0.4301,0,0.4053,0.4058,0.4077,0.4099,0.4114,0.4131,0.4148,0.4158,0.417,0.4185,0.4208,0.4222,0.425,0.4272,0.4294,0.4304,0.4305,0.4306,0.431,0.4308,0.4304,0.4306,0.426,0.4304,0.4304,0.4304,0.4303,0.4303,0.4073,0.4088,0.4106,0.4128,0.4142,0.4158,0.4174,0.4185,0.4205,0.4228,0.4233,0.4257,0.4276,0.4305,0.4317,0.4336,0.4332,0.4339,0.4341,0.4342,0.4343,0.4302,0.434,0.434,0.434,0.434,0.434,0,0.4102,0.4115,0.4134,0.4158,0.4176,0.4177,0.4196,0.421,0.4231,0.4249,0.4267,0.4294,0.4316,0.4331,0.4354,0.4366,0.4367,0.4372,0.437,0.4373,0.4345,0.4339,0.4371,0.4371,0.4371,0.4371,0.4371,0.4371,0.4119,0.4145,0.4153,0.4186,0.4199,0.4223,0.4234,0.4249,0.4263,0.4294,0.4312,0.4323,0.4339,0.4364,0.4384,0.4388,0.4396,0.4401,0.4405,0.4378,0.4375,0.4372,0.4366,0.4403,0.4403,0.4431,0.4431,0.4431]},{"header":{"parameterUnit":"m.s-1","parameterCategory":1,"la1":30.2991,"la2":30.254,"lo1":-89.0895,"lo2":-89.0444,"dy":0.0017,"dx":0.0017,"nx":28,"ny":28,"refTime":"2024-03-07T09:00:00:Z","depth":0,"parameterNumber":3,"parameterNumberName":"V-component_of_WINDS"},"data":[0,0,0,0,0,0,0,0,0,0,0,0,0,0,0,0,0,0,0,0,0,0,0,0,0,0,0,0,0,0,0,0,0,0,0,0,0,0,0,0,0,0,0,0,0,0,0,0,0,0,0,0,0,0,0,0,0,0,-1.0475,-1.0476,0,-1.0552,-1.0553,-1.0554,-1.0602,-1.0603,-1.0603,-1.0603,-1.0678,-1.068,-1.0681,0,0,0,0,0,0,0,0,0,0,0,0,0,-1.0365,-1.0367,-1.0475,-1.0476,-1.0477,-1.0552,-1.0553,-1.0554,-1.0602,-1.0603,-1.0603,-1.0603,-1.0677,-1.0679,-1.0681,0,0,0,0,0,0,0,0,0,0,0,0,0,-1.0425,-1.0368,-1.0475,-1.051,-1.0514,-1.0552,-1.0553,-1.0554,-1.0602,-1.0603,-1.0603,-1.0604,-1.0677,-1.0679,-1.0682,-1.0689,0,0,-1.069,-1.0691,0,0,0,0,0,0,0,0,-1.0421,-1.0429,-1.0504,-1.0508,-1.0512,-1.0568,-1.0542,-1.0599,-1.0602,-1.0569,-1.0603,-1.0604,-1.0641,-1.0646,-1.066,-1.0693,-1.0696,-1.069,-1.0691,-1.0693,-1.0693,0,0,0,0,0,0,0,-1.0417,-1.0426,-1.0505,-1.0505,-1.051,-1.0521,-1.053,-1.0553,-1.0601,-1.0572,-1.0575,-1.0584,-1.0643,-1.0657,-1.0662,-1.0697,-1.069,-1.0692,-1.0694,-1.0695,-1.0741,-1.074,0,0,0,0,0,0,-1.0408,-1.0422,-1.0503,-1.0508,-1.0467,-1.0522,-1.0532,-1.055,-1.0601,-1.0609,-1.0584,-1.0586,-1.0653,-1.0659,-1.0665,-1.0677,-1.0693,-1.0695,-1.0696,-1.0741,-1.0741,-1.074,0,0,0,0,0,0,-1.0405,-1.0415,-1.05,-1.0466,-1.0477,-1.0524,-1.0543,-1.0551,-1.0565,-1.061,-1.0619,-1.0589,-1.0653,-1.0661,-1.0683,-1.0681,-1.0696,-1.0699,-1.0742,-1.0741,-1.0741,-1.0702,0,0,0,0,0,0,-1.0402,-1.0413,-1.0417,-1.0466,-1.0479,-1.0518,-1.0543,-1.0552,-1.057,-1.0574,-1.0618,-1.0626,-1.0654,-1.0679,-1.0686,-1.0684,-1.0701,-1.0742,-1.0741,-1.0741,-1.0704,-1.07,-1.0697,0,0,0,0,0,-1.0398,-1.0402,-1.0417,-1.0427,-1.0485,-1.0518,-1.0525,-1.0559,-1.057,-1.0574,-1.0603,-1.0624,-1.068,-1.0681,-1.0689,-1.0688,-1.0742,-1.0741,-1.0741,-1.0705,-1.0701,-1.0698,0,0,0,0,0,0,-1.035,-1.0409,-1.0426,-1.0447,-1.0477,-1.0526,-1.0532,-1.0553,-1.058,-1.0582,-1.0622,-1.0632,-1.065,-1.0671,-1.0672,-1.0699,-1.0714,-1.0714,-1.0684,-1.068,-1.0677,-1.0671,-1.0703,0,0,0,0,0,-1.0343,-1.0365,-1.0415,-1.0428,-1.0443,-1.0484,-1.05,-1.0524,-1.0556,-1.0568,-1.0599,-1.0628,-1.0653,-1.0668,-1.0693,-1.0708,-1.0718,-1.0711,-1.0708,-1.0705,-1.0705,-1.0715,-1.0712,-1.0738,-1.0738,-1.0738,0,0,-1.0326,-1.0361,-1.0373,-1.0419,-1.0446,-1.0467,-1.0495,-1.0516,-1.0532,-1.0571,-1.0595,-1.0618,-1.0654,-1.0672,-1.0682,-1.0691,-1.07,-1.0704,-1.0701,-1.0703,-1.0714,-1.0711,-1.0709,-1.0737,-1.0738,-1.0738,0,0,-1.0307,-1.0336,-1.0351,-1.0377,-1.0417,-1.0445,-1.0449,-1.0495,-1.0512,-1.0537,-1.0567,-1.0586,-1.0627,-1.0652,-1.0669,-1.0661,-1.0682,-1.0668,-1.0651,-1.066,-1.0658,-1.0657,-1.0654,-1.0652,-1.0668,-1.0668,-1.0668,0,-1.0281,-1.0316,-1.0355,-1.0375,-1.0395,-1.0433,-1.0448,-1.0471,-1.0516,-1.0529,-1.0538,-1.0591,-1.0618,-1.0643,-1.0642,-1.0655,-1.0659,-1.0663,-1.0656,-1.0655,-1.0654,-1.0651,-1.065,-1.0666,-1.0666,-1.0667,-1.0667,0,-1.0282,-1.0306,-1.0313,-1.0358,-1.0378,-1.0395,-1.0436,-1.0452,-1.0474,-1.0501,-1.0526,-1.0559,-1.0592,-1.06,-1.0621,-1.0629,-1.0633,-1.0648,-1.0664,-1.0649,-1.0647,-1.0647,-1.0663,-1.0664,-1.0665,-1.0665,0,0,-1.0234,-1.0302,-1.0304,-1.0325,-1.0373,-1.0392,-1.0411,-1.0444,-1.0457,-1.0488,-1.0504,-1.0539,-1.0554,-1.0574,-1.0599,-1.0607,-1.0599,-1.0622,-1.0623,-1.0616,-1.0609,-1.0597,-1.0595,-1.0613,-1.0613,-1.0613,-1.0606,0,-1.0222,-1.0259,-1.0295,-1.032,-1.0342,-1.038,-1.0396,-1.0427,-1.0453,-1.0475,-1.0503,-1.0527,-1.0546,-1.0558,-1.0568,-1.0598,-1.0598,-1.0599,-1.0628,-1.0629,-1.0618,-1.0594,-1.0581,-1.0572,-1.0606,-1.0606,-1.0606,0,-1.0212,-1.0243,-1.027,-1.0317,-1.0328,-1.0342,-1.0377,-1.0398,-1.0433,-1.0452,-1.0475,-1.0502,-1.0523,-1.0537,-1.0567,-1.0566,-1.0581,-1.0597,-1.0598,-1.0601,-1.0616,-1.0597,-1.0571,-1.0569,-1.0605,-1.0605,-1.0605,0,-1.0174,-1.0222,-1.0245,-1.0262,-1.0318,-1.0327,-1.035,-1.0387,-1.0405,-1.0435,-1.0447,-1.0478,-1.0495,-1.0518,-1.0552,-1.0559,-1.0578,-1.0595,-1.0593,-1.0592,-1.0594,-1.0594,-1.057,-1.0604,-1.0604,-1.0604,-1.0604,0,-1.0157,-1.0171,-1.0229,-1.0243,-1.0261,-1.0302,-1.0318,-1.0344,-1.0377,-1.0396,-1.043,-1.0447,-1.0491,-1.0513,-1.054,-1.056,-1.0567,-1.0582,-1.0589,-1.0579,-1.0577,-1.0588,-1.0589,-1.0604,-1.0604,-1.0604,-1.0604,0,-1.0116,-1.0156,-1.0183,-1.0234,-1.0247,-1.0258,-1.0302,-1.0316,-1.0345,-1.0368,-1.0376,-1.0421,-1.0449,-1.0485,-1.0524,-1.0542,-1.0559,-1.057,-1.0547,-1.0551,-1.0547,-1.0547,-1.0529,-1.0529,-1.0564,-1.0563,-1.0563,0,-1.0102,-1.0115,-1.0168,-1.0184,-1.0207,-1.0232,-1.0252,-1.0293,-1.0312,-1.0355,-1.0364,-1.0395,-1.0422,-1.0464,-1.0499,-1.0529,-1.054,-1.0532,-1.0545,-1.0535,-1.054,-1.0539,-1.054,-1.0529,-1.0528,-1.0528,-1.0527,0,-1.0073,-1.0092,-1.012,-1.0155,-1.0178,-1.0207,-1.0237,-1.0248,-1.0296,-1.0315,-1.0345,-1.0366,-1.0407,-1.0437,-1.0472,-1.0494,-1.0518,-1.0523,-1.0524,-1.0514,-1.05,-1.0507,-1.0538,-1.0523,-1.0523,-1.0524,-1.0524,-1.0524,-1.0045,-1.0058,-1.0099,-1.0129,-1.0156,-1.0185,-1.0201,-1.0233,-1.0259,-1.0297,-1.0319,-1.0348,-1.0384,-1.0434,-1.0456,-1.0479,-1.0488,-1.049,-1.049,-1.0489,-1.0486,-1.0497,-1.0485,-1.0485,-1.0486,-1.0486,-1.0486,0,-1.0017,-1.0045,-1.0073,-1.0116,-1.0139,-1.0162,-1.0197,-1.0215,-1.0241,-1.0273,-1.03,-1.0334,-1.0364,-1.0402,-1.0435,-1.0445,-1.0457,-1.0452,-1.0451,-1.0456,-1.0476,-1.0472,-1.0442,-1.0442,-1.0442,-1.0442,-1.0442,-1.0442,-1.0005,-1.0029,-1.0054,-1.0092,-1.012,-1.015,-1.0168,-1.0194,-1.0221,-1.0258,-1.0284,-1.031,-1.0344,-1.038,-1.0408,-1.0418,-1.0428,-1.042,-1.0433,-1.0451,-1.0455,-1.0458,-1.0455,-1.0422,-1.0422,-1.0412,-1.0412,-1.0412]}]]